sat.trackr.live / text

‹ back to catalog

ONEWEB-0446

NORAD 51640 · 2022-012U

PAYLOAD ACTIVE UNKNOWN

§ Identity

Operator
Country
UK
Launch date
2022-02-10
Launch site
FRGUI
Launch vehicle
Mass (kg)
RCS (m²)

Purposes: comms

External: N2YO · Heavens-Above · Gunter

§ Orbital elements

Epoch: 2026-05-25T02:39:26.609760Z

Period
109.89 min
Inclination
87.8849°
Eccentricity
0.0001731
Mean motion
13.10371203 rev/d
Perigee alt
1,220.4 km
Apogee alt
1,223.0 km
Semi-major
7,599.9 km
B*
-1.1113e-3
RAAN
40.8781°
Arg perigee
84.0893°
Mean anomaly
276.0431°
Rev number
20,630

§ Raw data

ONEWEB-04461 51640U 22012U   26145.11072465 -.00000375  00000+0 -11113-2 0  99922 51640  87.8849  40.8781 0001731  84.0893 276.0431 13.10371203206309

JSON: /api/v1/satellites/51640 · /tle

For live sub-satellite position, see the globe view (requires WebGL).

§ Visibility from observer

Set your observer location to see the next 7 days of passes ≥ 10°. The values pass through the URL so the page stays shareable.

No JS? Fill the form by hand. The geolocation button needs JavaScript.